This is the latest recevied weather packets stored in our database for station/object M0SDM-10. If no packets are shown the sender has not sent any weather packets the latest 10 day(s).
| Time | Temp. | Humidity | Pressure | Rain* | Wind** | Luminosity | Snow |
|---|---|---|---|---|---|---|---|
| 1777741065 | 17.78° C | 54% | 1001.8 hPa | - | - | - | - |
| 1777739265 | 17.78° C | 56% | 1002.3 hPa | - | - | - | - |
| 1777737465 | 17.78° C | 55% | 1002.6 hPa | - | - | - | - |
| 1777735665 | 18.33° C | 52% | 1002.7 hPa | - | - | - | - |
| 1777733865 | 17.78° C | 51% | 1003.2 hPa | - | - | - | - |
| 1777732065 | 17.22° C | 55% | 1003.7 hPa | - | - | - | - |
| 1777730265 | 17.22° C | 57% | 1003.8 hPa | - | - | - | - |
| 1777728465 | 17.22° C | 57% | 1004.2 hPa | - | - | - | - |
| 1777726665 | 17.22° C | 59% | 1004.3 hPa | - | - | - | - |
| 1777724864 | 17.22° C | 60% | 1004.7 hPa | - | - | - | - |
| 1777723064 | 17.22° C | 59% | 1005 hPa | - | - | - | - |
| 1777721264 | 16.67° C | 60% | 1005.6 hPa | - | - | - | - |
| 1777719464 | 16.67° C | 59% | 1005.7 hPa | - | - | - | - |
| 1777717664 | 16.11° C | 59% | 1005.8 hPa | - | - | - | - |
| 1777715864 | 16.11° C | 60% | 1006.2 hPa | - | - | - | - |
| 1777714064 | 15.56° C | 62% | 1006.5 hPa | - | - | - | - |
| 1777712263 | 15° C | 66% | 1006.5 hPa | - | - | - | - |
| 1777710463 | 14.44° C | 65% | 1006.6 hPa | - | - | - | - |
| 1777708663 | 14.44° C | 66% | 1006.5 hPa | - | - | - | - |
| 1777706863 | 13.89° C | 66% | 1006.6 hPa | - | - | - | - |
| 1777705063 | 13.89° C | 66% | 1006.6 hPa | - | - | - | - |
| 1777703263 | 14.44° C | 65% | 1006.5 hPa | - | - | - | - |
| 1777701463 | 14.44° C | 65% | 1006.4 hPa | - | - | - | - |
| 1777699663 | 14.44° C | 65% | 1006.3 hPa | - | - | - | - |
| 1777697862 | 14.44° C | 65% | 1006.3 hPa | - | - | - | - |
* Rain since midnight (hover to see other rain measurements)
** Current wind speed in m/s (hover to see current wind gust speed)